SL-16 DEB, 22609

Orbit data source: Space-Track

SL-16 DEB, 22609 is space debris in LEO originally from a launch on Fri, 26 Mar 1993 UTC launched from the Tyuratam Missile And Space Complex (TTMTR). Debris objects in space refer to the collection of defunct objects orbiting the Earth. Examples of debris include non-operational satellites, rocket bodies, and fragments generated from explosions, collisions, or faulty payload assembly.

Loading next visibility...
Identifier
22609, 1993-016T
Orbit
LEO
Country
Flag of CISCIS
Related business
Manufacturer
Unknown
Mission
Spacecraft
Bus & Motor
Unknown
Mass
Unknown
Launch date (UTC)
1993-03-26 (33 years ago)
Launch vehicle
Unknown
Launch site
Tyuratam Missile And Space Complex (TTMTR)
Object type
Payload
Rocket body
Debris
Shape & HBR
Unknown shape, 0.1 m
Radar Cross Section
Medium (>0.1 m² and <1 m²)

Expand to show TLE details & history
Last TLE update: 2 days ago

TLE from 2 days ago
0 SL-16 DEB
1 22609U 93016T   26254.14853975  .00000111  00000-0  11828-3 0  9995
2 22609  70.9919 301.1587 0134000  45.0991 347.1528 13.89377634692038
Epoch: 2026-09-11T03:33Z
TLE epoch observation values (Epoch: 2026-09-11T03:33:53.834Z)
Latitude
30.04117°
Longitude
-91.06211°
Altitude
838.601 km
Speed
7.485 km/s
True Right ascension
20h 50m 21s
True Declination
29° 53' 38"
Sunlit
Object was in full shadow at epoch
Visualization orbit readout
Latitude
Unknown
Longitude
Unknown
Altitude
Unknown
Speed
Unknown
Apparent Right ascension
Unknown
Apparent Declination
Unknown
Sunlit
N/A
Visualization observer readout
Local Sidereal Time
11:39:03
Azimuth
Unknown
Elevation
Unknown
Doppler factor
Unknown
Orbital elements
Apogee altitude
1,026.675 km
Perigee altitude
830.851 km
Semi-major axis
7,306.9 km
Eccentricity
0.0134
Inclination
70.9919°
RAAN
301.1587°
Arg. of periapsis
45.0991°
True anomaly
346.80571°
Mean anomaly
347.1528°
Eccentric anomaly
346.97983°
Mean motion
3.47491 °/min
Orbital period
103.6 mins
BSTAR
0.00011828
Loading maneuver chart data...
Computing Atmospheric mass density...
Loading historical data...
Loading historical data...
Loading historical data...
Loading historical data...
Loading historical data...
Loading historical data...
Loading historical data...

Documentation

Showing up to 5 results
|